User: anonymous   Login
Location: Unspecified
(0.0000°N, 0.0000°E)
Time: 04:46:21
(UTC+00:00)
Language:

Kiku-3 - Orbit

View from above orbital plane
View from above orbital plane
View from above satellite
View from above satellite

Ground track
Ground track

The orbit data is extracted from the following two-line orbital elements,

1 12295U 81012A   18020.22812233 +.00002402 +00000-0 +35984-3 0  9995
2 12295 028.4678 034.5446 5038782 215.4247 097.4048 05.56328307465567
Epoch (UTC): 20 January 2018 05:28:29
Eccentricity: 0.5038782
inclination: 28.4678°
perigee height: 296 km
apogee height: 13855 km
right ascension of ascending node: 34.5446°
argument of perigee: 215.4247°
revolutions per day: 5.56328307
mean anomaly at epoch: 97.4048°
orbit number at epoch: 46556

The dashed part of the orbit path shows where the satellite is in the earth's shadow,  

DLR